Theta_e
332 323 320 320 318 318 318 318 316 315 317 322 327 331 335 336 336 335 333 343 346 344 341 341 340 339 339 338 337 336 336 336 336 337 338 339 340 341 342 343 344 346 345
324 321 320 320 320 318 318 318 317 315 315 318 323 325 330 334 334 333 333 336 345 343 342 339 339 338 337 337 336 334 333 333 333 333 333 335 336 337 337 339 341 342 343
325 322 322 322 320 319 320 319 318 315 314 318 320 321 320 322 329 331 330 331 336 343 342 339 338 337 336 335 334 332 330 329 330 330 331 331 332 333 334 335 336 338 339
326 323 324 323 321 320 319 319 317 314 311 313 313 315 318 316 317 317 318 317 323 332 338 338 337 336 335 333 332 331 329 328 327 326 326 327 328 329 330 331 332 334 335
325 324 322 322 320 319 318 318 317 312 310 311 316 315 315 317 317 318 314 313 318 326 330 337 336 335 333 332 331 330 328 326 325 324 324 324 325 326 327 328 329 331 332
324 324 322 321 320 318 317 316 315 315 313 311 314 312 310 312 313 312 311 312 312 315 326 328 327 328 331 329 328 327 327 326 324 323 322 321 323 324 324 324 325 326 329
328 324 323 321 317 318 317 317 314 311 312 311 309 309 311 309 308 307 308 309 310 311 315 325 323 320 321 326 325 325 324 323 323 322 321 320 321 322 322 322 322 323 324
327 324 323 321 318 317 317 316 314 312 310 310 307 305 304 306 308 308 306 309 309 313 318 320 318 315 314 314 318 322 321 321 321 321 320 320 319 320 320 321 321 321 322
326 325 323 321 319 317 315 314 314 311 308 308 308 305 299 299 302 306 304 306 309 310 312 316 315 313 311 310 315 316 320 319 320 320 320 319 319 319 319 320 320 320 321
326 325 324 322 319 318 315 315 314 311 308 306 307 307 305 305 301 298 301 302 306 310 308 310 313 314 310 309 316 319 319 318 317 318 318 318 319 319 319 319 319 319 320
327 326 324 322 321 319 317 315 313 311 308 306 306 304 303 301 300 298 295 299 302 303 304 308 310 313 311 309 309 315 316 315 316 316 316 317 318 318 318 317 319 319 318
325 327 325 323 320 319 317 314 312 310 308 306 305 304 303 301 301 298 296 296 297 300 302 302 302 306 307 308 314 316 315 316 316 316 316 317 317 318 318 318 318 319 319
324 324 324 322 320 319 318 314 312 310 307 305 304 303 303 302 301 300 298 297 296 298 298 300 300 303 307 306 309 312 313 315 317 316 316 316 316 316 317 319 319 320 321
326 325 324 322 321 320 318 315 311 310 309 307 304 303 302 302 302 302 300 297 294 294 295 296 298 301 301 304 309 312 304 313 315 316 317 317 315 315 316 316 317 318 318
326 325 324 322 321 320 317 313 310 308 309 306 304 303 301 301 301 300 300 298 296 292 292 295 296 299 299 300 306 301 301 311 312 314 316 315 315 315 316 315 315 315 315
326 325 324 322 320 319 315 311 309 308 307 306 304 302 302 300 300 299 298 298 297 295 291 294 295 297 298 301 305 299 302 308 309 311 315 314 314 316 315 314 313 312 312
325 325 324 321 319 317 314 310 308 308 306 304 303 304 302 300 298 298 297 296 296 294 291 292 295 296 297 296 298 298 301 300 300 309 313 314 314 313 312 312 311 311 310
325 326 324 320 318 316 315 311 310 308 306 303 305 303 303 303 297 297 295 294 294 293 292 291 292 294 294 296 297 297 299 302 299 307 312 311 312 313 311 310 309 309 308
325 325 323 319 316 314 314 312 311 308 305 305 305 304 304 301 298 295 293 293 293 296 293 292 291 292 294 295 295 296 297 297 301 308 309 309 309 311 310 309 309 309 307
324 324 321 318 316 314 314 312 311 308 306 307 306 305 303 300 295 295 293 292 293 293 292 293 292 291 292 293 293 292 294 294 295 300 304 306 306 306 308 308 308 309 307
324 323 320 318 316 313 312 310 309 307 305 305 305 303 300 299 303 299 296 293 293 292 293 292 290 290 290 290 290 292 291 292 293 295 296 297 297 297 299 305 307 307 308
323 322 320 317 313 313 307 308 308 306 305 305 301 301 303 307 306 306 305 304 299 296 293 292 290 289 289 289 290 291 290 290 289 294 295 296 295 295 297 298 306 308 307
322 320 318 315 312 311 305 305 307 307 305 304 302 302 300 299 298 298 304 306 307 304 299 293 291 290 290 291 291 290 290 289 290 294 294 293 294 294 296 299 304 306 306
318 316 314 313 311 309 304 303 305 306 305 305 304 301 297 294 294 297 297 295 294 295 296 297 293 292 292 293 292 293 292 291 292 293 294 291 293 293 295 296 302 303 303
316 314 311 307 309 305 303 303 305 306 305 303 304 301 297 294 297 299 296 293 291 292 298 301 299 299 299 298 297 293 292 291 290 291 293 292 293 291 292 294 296 302 301
315 312 307 307 306 304 301 302 306 306 304 303 303 300 300 295 297 298 294 291 290 290 291 292 292 294 294 295 301 294 293 291 289 290 293 293 292 290 290 292 294 296 295
Wind_Speed
4 4 4 4 3 3 4 5 5 5 5 5 5 5 4 5 5 3 2 11 11 13 15 16 18 19 19 20 21 21 22 23 22 22 22 23 22 20 18 18 18 17 12
5 5 4 4 4 3 4 5 5 5 5 4 5 5 4 3 4 4 3 4 9 11 13 14 16 17 18 19 19 20 20 20 21 20 20 21 20 20 20 20 19 17 17
5 6 5 4 3 3 6 5 5 5 5 4 6 5 4 3 1 4 2 3 3 10 12 13 14 15 17 18 18 19 20 20 20 20 20 19 19 20 21 20 19 20 19
7 6 5 4 2 3 4 5 3 4 5 4 3 3 4 4 3 3 3 3 2 2 8 13 12 13 15 16 16 17 18 19 19 19 19 19 19 19 18 18 19 20 20
8 7 5 3 4 4 4 4 4 3 3 3 4 4 4 4 4 4 5 5 3 2 3 10 10 12 13 15 16 16 17 18 19 19 18 17 17 17 17 18 19 20 20
8 7 6 5 4 5 4 4 5 5 4 3 7 6 5 4 5 5 5 4 5 4 2 4 4 6 14 14 15 15 17 18 19 19 19 18 17 16 17 18 19 19 19
6 7 6 5 4 5 5 4 3 4 5 2 3 3 4 6 7 5 4 4 5 4 4 5 4 4 5 13 14 15 16 17 19 19 18 18 18 18 18 18 18 18 19
9 8 9 6 6 5 6 3 3 2 3 5 3 2 3 4 5 6 6 6 7 5 6 6 6 5 4 3 7 12 14 16 17 18 18 16 15 15 16 18 20 19 18
8 8 9 8 7 5 5 4 4 3 4 3 6 4 2 3 1 4 6 5 6 5 5 5 5 4 4 3 5 7 13 14 16 17 18 19 17 15 15 15 17 19 20
9 9 9 9 7 5 6 4 4 4 2 4 3 4 4 4 4 1 3 4 5 7 6 3 2 4 5 5 8 11 13 14 16 16 17 18 17 17 16 16 16 16 18
9 10 10 9 8 5 6 7 5 6 2 3 3 2 4 4 3 4 1 3 4 4 5 5 3 2 5 4 3 7 12 14 15 17 17 17 16 16 15 17 17 16 18
3 8 10 9 8 8 7 6 6 7 5 5 3 3 3 3 2 3 3 1 2 1 2 3 4 3 3 4 7 12 14 15 14 17 17 17 18 18 17 17 16 16 18
5 8 10 10 8 7 7 7 7 7 6 5 5 4 2 2 4 2 4 2 2 2 2 2 4 4 3 3 5 11 14 15 14 14 14 16 15 18 17 16 17 17 18
9 10 10 11 11 10 8 7 5 5 6 5 7 5 4 3 2 3 4 5 2 3 3 2 2 4 4 4 7 14 7 17 15 14 14 15 16 15 11 12 14 16 17
8 12 13 12 11 11 10 9 6 6 6 5 6 6 4 2 3 4 3 2 5 3 1 3 3 4 4 3 7 5 6 13 16 15 14 16 15 15 12 11 12 14 15
10 11 12 13 12 11 11 9 6 6 7 5 5 7 5 3 4 4 4 3 2 5 3 2 2 1 3 4 5 4 5 11 14 14 15 14 15 13 12 12 12 14 16
12 13 14 14 13 12 12 9 8 8 8 7 6 7 6 4 3 4 3 3 4 3 4 2 2 2 2 3 5 5 5 5 5 13 16 14 10 10 10 12 14 15 16
12 13 13 14 13 13 13 12 12 10 11 9 8 8 8 5 5 4 4 5 3 2 4 3 1 2 1 2 4 4 5 5 5 12 15 14 8 7 9 11 12 13 15
13 14 14 15 14 14 13 12 12 12 11 11 10 9 8 7 5 3 3 5 3 2 2 2 1 1 2 2 4 3 4 5 5 12 11 13 12 9 9 10 11 12 12
15 14 15 15 15 14 14 14 13 13 12 11 10 9 9 8 8 7 5 5 3 4 1 1 2 1 2 3 1 2 5 2 4 5 9 9 10 10 10 10 11 13 12
15 15 15 15 15 13 11 14 14 14 13 10 7 8 8 10 13 9 5 5 5 3 2 3 0 1 2 3 2 2 2 3 4 2 4 4 4 4 5 9 10 13 12
15 15 16 17 15 11 18 20 18 14 13 13 10 6 8 12 9 9 7 7 7 6 3 3 2 2 2 3 2 1 2 3 4 1 3 6 2 5 5 5 12 14 14
15 16 16 16 17 14 21 19 17 10 10 11 7 7 6 4 7 6 5 5 7 6 6 6 4 4 2 4 0 2 2 2 3 4 2 4 3 4 5 6 13 14 16
15 14 13 13 12 9 18 19 17 14 12 13 10 9 8 7 6 7 6 6 3 2 3 4 5 5 6 3 4 3 2 3 5 3 1 3 2 4 5 6 13 14 13
11 11 11 12 13 13 24 23 17 13 13 12 10 7 8 6 9 10 7 6 3 2 3 2 5 7 5 5 7 2 3 4 4 3 2 1 4 4 4 5 6 13 13
12 11 11 12 17 17 18 16 15 10 12 9 9 7 13 9 10 11 7 6 6 3 1 2 2 2 5 5 5 2 3 1 1 3 3 2 4 2 5 4 5 5 5
Wind_Direction
133 133 117 108 100 80 82 63 59 63 56 94 98 96 102 107 105 105 103 106 97 91 86 78 77 72 65 59 55 52 46 40 36 30 29 26 24 22 19 20 15 10 4
141 119 119 108 104 112 93 93 75 61 61 80 97 109 122 106 120 118 105 109 105 102 94 85 82 79 73 66 59 54 51 46 41 35 31 27 23 23 20 15 14 11 7
137 126 123 107 113 110 101 89 64 59 54 51 75 90 97 101 117 114 112 84 88 112 105 96 89 84 79 71 63 55 50 46 39 34 29 24 22 21 21 18 12 8 6
138 113 113 114 151 99 90 88 73 58 56 50 57 58 85 95 138 100 75 62 130 107 110 112 105 97 90 84 72 62 52 44 40 33 27 21 16 16 16 14 11 12 10
143 128 126 136 122 94 72 87 61 84 57 45 76 54 60 73 73 64 50 28 40 86 126 120 109 91 78 74 69 60 52 44 34 26 20 14 12 16 13 11 8 6 7
133 131 123 125 120 98 75 73 83 40 60 75 85 57 42 48 49 43 32 25 47 55 80 96 74 78 75 68 63 56 48 37 25 16 12 6 5 8 10 9 6 2 359
131 133 124 127 122 110 123 120 91 70 46 20 92 53 30 36 47 28 16 37 43 21 69 60 51 50 51 63 53 47 39 30 24 20 17 11 8 0 2 4 3 0 354
153 146 139 139 128 113 101 94 100 103 51 6 109 73 61 352 16 13 18 21 33 45 69 76 76 69 57 45 67 47 34 31 25 17 15 12 7 2 359 358 357 357 353
154 156 145 140 130 126 125 115 109 104 129 33 60 128 97 190 11 345 10 21 33 50 57 75 81 86 64 35 46 29 38 28 20 14 6 3 358 350 351 352 354 353 350
165 158 150 141 134 132 120 113 112 116 116 121 64 44 60 147 148 76 357 357 23 48 49 49 110 62 36 19 27 42 33 22 14 10 2 355 355 349 347 344 340 341 342
178 161 151 142 138 129 124 118 112 106 107 127 128 135 65 51 60 114 84 348 15 22 19 23 37 15 11 12 354 30 24 15 14 11 4 3 358 351 349 345 336 334 333
177 172 153 144 141 133 137 132 127 117 122 100 99 118 151 152 163 127 119 223 172 297 12 44 28 32 27 24 26 17 12 15 12 2 5 5 8 2 353 340 348 342 338
204 187 154 143 146 141 140 136 137 137 137 128 133 107 93 111 132 141 119 142 124 345 348 359 25 26 26 15 16 25 4 1 9 5 360 359 358 358 352 358 4 357 352
182 174 155 150 149 142 141 141 140 132 130 129 130 120 118 124 136 149 152 139 91 31 4 301 325 11 2 354 20 20 351 352 1 357 355 360 0 357 358 8 5 357 354
179 172 157 150 151 148 147 149 144 133 142 134 137 125 110 111 86 81 94 128 135 131 342 305 38 344 338 5 15 1 338 351 355 355 2 2 357 351 353 11 12 4 353
171 168 157 155 152 151 149 150 142 141 137 135 132 125 121 116 109 111 110 106 112 138 151 190 300 277 321 347 346 5 338 359 353 349 356 359 356 359 16 19 9 1 354
168 175 163 161 157 157 160 156 144 145 134 134 135 128 120 134 125 108 104 85 82 96 122 309 249 293 321 332 344 345 348 343 328 344 355 355 358 14 10 4 359 355 350
171 172 170 164 163 165 166 154 154 148 145 149 148 137 136 128 108 119 103 102 100 94 120 141 265 297 307 312 286 339 345 338 332 344 350 356 356 355 359 354 349 345 344
174 170 173 170 169 169 167 163 155 153 155 157 153 147 147 142 132 136 123 112 116 89 86 141 254 346 282 321 319 325 335 339 330 338 345 344 348 331 336 340 334 330 337
170 173 179 172 173 173 169 163 157 158 156 159 148 151 147 152 149 145 135 130 132 128 135 106 56 309 266 296 308 322 340 336 319 329 332 326 332 333 321 314 327 329 329
179 179 174 175 175 174 166 159 156 159 153 142 132 144 139 154 149 151 138 162 151 144 161 87 31 342 311 337 326 320 295 306 300 297 309 306 313 317 322 309 302 311 314
181 176 181 175 172 176 157 155 157 155 144 135 158 159 153 145 133 130 155 176 179 159 145 142 177 226 261 244 284 336 283 12 319 273 323 303 12 314 301 303 291 294 298
175 180 178 176 177 173 153 139 133 125 130 130 161 154 136 136 127 123 126 116 129 143 151 157 179 217 242 215 95 296 267 215 252 282 345 289 337 312 301 305 305 304 301
174 174 175 177 173 161 141 128 122 129 134 146 162 180 145 150 148 142 135 125 118 158 145 193 196 223 233 250 196 204 247 290 282 292 212 285 317 284 310 310 314 315 322
169 168 157 150 156 140 129 134 135 143 139 154 153 205 144 148 158 149 144 144 173 212 292 274 233 241 274 264 196 146 10 39 316 297 325 281 297 300 308 306 304 313 326
164 149 140 151 149 140 132 125 130 132 151 155 185 170 156 156 165 154 148 155 158 207 328 18 24 19 9 23 141 137 144 58 275 318 277 338 320 351 324 292 301 304 323